Weather History for KGWB - November, 2012

Change the Weather History Date:

Thursday, November 1, 2012

  Actual Average (KFWA) Record (KFWA)
Temperature  
Mean Temperature 42 °F 47 °F  
Max Temperature 51 °F 57 °F 79 °F (1950)
Min Temperature 32 °F 38 °F 22 °F (1906)
Degree Days  
Heating Degree Days 24 18  
Month to date heating degree days 18  
Since 1 July heating degree days 527  
Cooling Degree Days 0 0  
Month to date cooling degree days 0  
Year to date cooling degree days 809  
Moisture  
Dew Point 31 °F    
Average Humidity 66    
Maximum Humidity 93    
Minimum Humidity 37    
Precipitation  
Precipitation 0.00 in 0.09 in 2.09 in (1982)
Month to date precipitation 0.09  
Year to date precipitation 32.57  
Snow  
Snow 0.00 in 0.00 in 0.80 in (1954)
Month to date snowfall 0.0  
Since 1 July snowfall 0.3  
Since 1 September snowfall 0.3  
Snow Depth -    
Sea Level Pressure  
Sea Level Pressure 29.78 in    
Wind  
Wind Speed 10 mph (WNW)    
Max Wind Speed 22 mph    
Max Gust Speed 28 mph    
Visibility 10 miles    
Events      
T = Trace of Precipitation, MM = Missing Value Source: NWS Daily Summary

Daily Weather History Graph

Daily Weather History Graph

Search for Another Location

Airport or City:

Trip Planner

Search our weather history database for the weather conditions in past years. The results will help you decide how hot, cold, wet, or windy it might be!

Date:

Astronomy

Nov. 01, 2012 Rise Set
Actual Time 8:12 AM EDT 6:34 PM EDT
Civil Twilight 7:43 AM EDT 7:03 PM EDT
Nautical Twilight 7:10 AM EDT 7:36 PM EDT
Astronomical Twilight 6:38 AM EDT 8:08 PM EDT
Moon 8:30 PM EDT (11/1) 10:45 AM EDT (11/1)
Length of Visible Light 11h 20m
Length of Day
10h 22m
Waning Gibbous, 93% of the Moon is Illuminated
Nov 1
Waning Gibbous
Nov 6
Last Quarter
Nov 13
New
Nov 20
First Quarter
Nov 28
Full

Hourly Weather History & Observations

Time (EDT) Temp. Windchill Dew Point Humidity Pressure Visibility Wind Dir Wind Speed Gust Speed Precip Events Conditions
12:15 AM 41.0 °F 34.7 °F 37.4 °F 87% 29.76 in 3.0 mi WNW 10.4 mph - N/A   Overcast
12:35 AM 41.0 °F 35.2 °F 37.4 °F 87% 29.76 in 7.0 mi WNW 9.2 mph - N/A   Overcast
12:55 AM 41.0 °F 35.2 °F 37.4 °F 87% 29.76 in 10.0 mi WNW 9.2 mph - N/A   Overcast
1:15 AM 41.0 °F 36.4 °F 35.6 °F 81% 29.76 in 10.0 mi WNW 6.9 mph - N/A   Overcast
1:35 AM 41.0 °F 37.1 °F 35.6 °F 81% 29.75 in 10.0 mi West 5.8 mph - N/A   Overcast
1:55 AM 41.0 °F 35.2 °F 35.6 °F 81% 29.75 in 10.0 mi West 9.2 mph - N/A   Overcast
2:15 AM 41.0 °F 35.2 °F 35.6 °F 81% 29.75 in 10.0 mi WNW 9.2 mph - N/A   Overcast
2:35 AM 41.0 °F 35.2 °F 35.6 °F 81% 29.75 in 10.0 mi West 9.2 mph - N/A   Overcast
2:55 AM 41.0 °F 35.8 °F 35.6 °F 81% 29.74 in 10.0 mi West 8.1 mph - N/A   Overcast
3:15 AM 41.0 °F 36.4 °F 35.6 °F 81% 29.74 in 10.0 mi West 6.9 mph - N/A   Overcast
3:35 AM 41.0 °F 35.8 °F 35.6 °F 81% 29.75 in 10.0 mi West 8.1 mph - N/A   Overcast
3:55 AM 41.0 °F 35.2 °F 33.8 °F 76% 29.74 in 10.0 mi West 9.2 mph - N/A   Overcast
4:15 AM 39.2 °F 32.5 °F 33.8 °F 81% 29.74 in 10.0 mi West 10.4 mph - N/A   Overcast
4:35 AM 37.4 °F 31.4 °F 33.8 °F 87% 29.74 in 10.0 mi West 8.1 mph - N/A   Scattered Clouds
4:55 AM 37.4 °F 31.4 °F 32.0 °F 81% 29.75 in 10.0 mi West 8.1 mph - N/A   Clear
5:15 AM 37.4 °F 30.8 °F 32.0 °F 81% 29.75 in 10.0 mi WNW 9.2 mph - N/A   Clear
5:35 AM 37.4 °F 30.3 °F 32.0 °F 81% 29.75 in 10.0 mi WNW 10.4 mph - N/A   Clear
5:55 AM 37.4 °F 30.8 °F 32.0 °F 81% 29.76 in 10.0 mi WNW 9.2 mph - N/A   Clear
6:15 AM 35.6 °F 29.9 °F 30.2 °F 81% 29.76 in 10.0 mi West 6.9 mph - N/A   Clear
6:35 AM 33.8 °F 27.7 °F 30.2 °F 87% 29.77 in 10.0 mi West 6.9 mph - N/A   Clear
6:55 AM 33.8 °F 28.6 °F 30.2 °F 87% 29.77 in 10.0 mi West 5.8 mph - N/A   Clear
7:35 AM 33.8 °F 27.7 °F 30.2 °F 87% 29.77 in 10.0 mi West 6.9 mph - N/A   Clear
7:55 AM 32.0 °F 24.8 °F 30.2 °F 93% 29.77 in 10.0 mi West 8.1 mph - N/A   Clear
8:15 AM 33.8 °F 26.4 °F 30.2 °F 87% 29.78 in 10.0 mi West 9.2 mph - N/A   Clear
8:35 AM 33.8 °F 26.4 °F 30.2 °F 87% 29.78 in 10.0 mi West 9.2 mph - N/A   Clear
8:55 AM 33.8 °F 27.0 °F 30.2 °F 87% 29.79 in 10.0 mi West 8.1 mph - N/A   Clear
9:15 AM 35.6 °F 29.2 °F 32.0 °F 87% 29.80 in 10.0 mi WNW 8.1 mph - N/A   Clear
9:35 AM 37.4 °F 29.8 °F 32.0 °F 81% 29.80 in 10.0 mi WNW 11.5 mph - N/A   Clear
9:55 AM 37.4 °F 29.8 °F 32.0 °F 81% 29.80 in 10.0 mi WNW 11.5 mph - N/A   Scattered Clouds
10:15 AM 39.2 °F 32.0 °F 32.0 °F 75% 29.81 in 10.0 mi WNW 11.5 mph - N/A   Scattered Clouds
10:35 AM 41.0 °F 33.9 °F 32.0 °F 70% 29.81 in 10.0 mi WNW 12.7 mph 17.3 mph N/A   Scattered Clouds
10:55 AM 41.0 °F 34.3 °F 32.0 °F 70% 29.81 in 10.0 mi WNW 11.5 mph 18.4 mph N/A   Mostly Cloudy
11:15 AM 42.8 °F 36.6 °F 32.0 °F 66% 29.81 in 10.0 mi NW 11.5 mph 24.2 mph N/A   Scattered Clouds
11:35 AM 42.8 °F 35.8 °F 32.0 °F 66% 29.81 in 10.0 mi WNW 13.8 mph 20.7 mph N/A   Scattered Clouds
11:55 AM 44.6 °F 38.8 °F 32.0 °F 61% 29.81 in 10.0 mi WNW 11.5 mph 20.7 mph N/A   Scattered Clouds
12:15 PM 44.6 °F 38.4 °F 32.0 °F 61% 29.81 in 10.0 mi WNW 12.7 mph 16.1 mph N/A   Clear
12:35 PM 46.4 °F 40.4 °F 32.0 °F 57% 29.81 in 10.0 mi WNW 13.8 mph 20.7 mph N/A   Mostly Cloudy
12:55 PM 46.4 °F 39.5 °F 32.0 °F 57% 29.80 in 10.0 mi West 17.3 mph - N/A   Overcast
1:15 PM 46.4 °F 39.5 °F 30.2 °F 53% 29.80 in 10.0 mi WNW 17.3 mph 26.5 mph N/A   Mostly Cloudy
1:35 PM 48.2 °F - 32.0 °F 54% 29.79 in 10.0 mi WNW 13.8 mph - N/A   Scattered Clouds
1:55 PM 48.2 °F - 32.0 °F 54% 29.78 in 10.0 mi West 15.0 mph 19.6 mph N/A   Scattered Clouds
2:15 PM 48.2 °F - 32.0 °F 54% 29.78 in 10.0 mi West 15.0 mph 21.9 mph N/A   Clear
2:35 PM 50.0 °F - 30.2 °F 47% 29.77 in 10.0 mi WNW 13.8 mph 23.0 mph N/A   Scattered Clouds
2:55 PM 50.0 °F - 24.8 °F 37% 29.77 in 10.0 mi West 16.1 mph 25.3 mph N/A   Scattered Clouds
3:15 PM 50.0 °F - 28.4 °F 43% 29.76 in 10.0 mi West 15.0 mph - N/A   Scattered Clouds
3:35 PM 50.0 °F - 26.6 °F 40% 29.76 in 10.0 mi WNW 13.8 mph 23.0 mph N/A   Mostly Cloudy
3:55 PM 51.8 °F - 26.6 °F 38% 29.76 in 10.0 mi WNW 15.0 mph 26.5 mph N/A   Mostly Cloudy
4:15 PM 50.0 °F - 26.6 °F 40% 29.76 in 10.0 mi WNW 13.8 mph 25.3 mph N/A   Mostly Cloudy
4:35 PM 51.8 °F - 28.4 °F 41% 29.76 in 10.0 mi West 15.0 mph 23.0 mph N/A   Scattered Clouds
4:55 PM 50.0 °F - 26.6 °F 40% 29.76 in 10.0 mi West 18.4 mph 23.0 mph N/A   Scattered Clouds
5:15 PM 50.0 °F - 24.8 °F 37% 29.77 in 10.0 mi WNW 21.9 mph 27.6 mph N/A   Clear
5:35 PM 50.0 °F - 26.6 °F 40% 29.78 in 10.0 mi WNW 11.5 mph 18.4 mph N/A   Scattered Clouds
5:55 PM 46.4 °F 40.4 °F 28.4 °F 50% 29.78 in 10.0 mi West 13.8 mph 19.6 mph N/A   Scattered Clouds
6:15 PM 46.4 °F 41.5 °F 28.4 °F 50% 29.79 in 10.0 mi West 10.4 mph - N/A   Mostly Cloudy
6:35 PM 46.4 °F 42.4 °F 28.4 °F 50% 29.79 in 10.0 mi WNW 8.1 mph - N/A   Mostly Cloudy
6:55 PM 44.6 °F 39.2 °F 26.6 °F 49% 29.80 in 10.0 mi WNW 10.4 mph - N/A   Overcast
7:15 PM 44.6 °F 38.8 °F 26.6 °F 49% 29.81 in 10.0 mi WNW 11.5 mph - N/A   Overcast
7:35 PM 42.8 °F 37.5 °F 28.4 °F 57% 29.81 in 10.0 mi West 9.2 mph - N/A   Overcast
7:55 PM 42.8 °F 37.0 °F 24.8 °F 49% 29.82 in 10.0 mi WNW 10.4 mph - N/A   Overcast
8:15 PM 42.8 °F 38.0 °F 26.6 °F 53% 29.82 in 10.0 mi West 8.1 mph - N/A   Overcast
8:35 PM 42.8 °F 37.5 °F 26.6 °F 53% 29.82 in 10.0 mi WNW 9.2 mph - N/A   Mostly Cloudy
9:15 PM 42.8 °F 37.5 °F 23.0 °F 46% 29.83 in 10.0 mi WNW 9.2 mph - N/A   Overcast
10:15 PM 42.8 °F 39.3 °F 24.8 °F 49% 29.84 in 10.0 mi WNW 5.8 mph - N/A   Overcast